Showing default

HERMES-5, 63834

Orbit data source: Space-Track

HERMES-5, 63834 is a payload satellite owned by ASI (IT) in SSO that was launched on Sat, 15 Mar 2025 UTC via an FALCON 9 launch vehicle from the Air Force Western Test Range (AFWTR). Payload-class satellites include a variety of spacecraft equipped with specific instruments for various scientific and technological missions. These include communications satellites like Starlink; space stations such as the ISS; scientific satellites like the Hubble; Earth observation satellites from companies like Planet Labs, Umbra, and HawkEye 360; GPS; miniature CubeSats for education and research; and military/defense satellites.

Loading next visibility...
Identifier
63834, 2025-052BQ
Orbit
SSO
Country
Flag of ITIT
Related business
Manufacturer
MILANP/INAFI
Mission
Operational Civil Astronomy
Bus & Motor
CUBESAT 3U, Unknown motor
Mass
5 kg wet, 5 kg dry
Launch date (UTC)
2025-03-15 (2 years ago)
Launch vehicle
FALCON 9
Launch site
Air Force Western Test Range (AFWTR)
Object type
Payload
Rocket body
Debris
Shape & HBR
Box, 0.2 m
Radar Cross Section
0.035 m², Medium (>0.1 m² and < 1m²)

Expand to show TLE details & history
Last TLE update: 11 hours ago

TLE from 11 hours ago
0 HERMES-5
1 63834U 25052BQ  26265.47115138  .00004524  00000-0  15758-3 0  9993
2 63834  97.3829 159.3186 0004811 140.4219 219.7374 15.30167272 84821
Epoch: 2026-09-22T11:18Z
TLE epoch observation values (Epoch: 2026-09-22T11:18:27.479Z)
Latitude
0.00002°
Longitude
-11.63205°
Altitude
480.954 km
Speed
7.624 km/s
True Right ascension
10h 37m 16s
True Declination
0° 00' 00"
Sunlit
Object was in daylight at epoch
Visualization orbit readout
Latitude
Unknown
Longitude
Unknown
Altitude
Unknown
Speed
Unknown
Apparent Right ascension
Unknown
Apparent Declination
Unknown
Sunlit
N/A
Visualization observer readout
Local Sidereal Time
15:37:00
Azimuth
Unknown
Elevation
Unknown
Doppler factor
Unknown
Orbital elements
Apogee altitude
475.56 km
Perigee altitude
468.968 km
Semi-major axis
6,850.401 km
Eccentricity
0.00048
Inclination
97.3829°
RAAN
159.3186°
Arg. of periapsis
140.4219°
True anomaly
219.70217°
Mean anomaly
219.7374°
Eccentric anomaly
219.71979°
Mean motion
3.82798 °/min
Orbital period
94.04 mins
BSTAR
0.00015758
Loading maneuver chart data...
Computing Atmospheric mass density...
Loading historical data...
Loading historical data...
Loading historical data...
Loading historical data...
Loading historical data...
Loading historical data...
Loading historical data...

Documentation

Showing up to 5 results
|